Regional Weather Roundup
Issued by NWS

Home | Current Version | Previous Version | Graphics & Text | Print | Product List | Glossary On
Versions: 1 2 3 4 5 6 7 8 9 10 11 12 13 14 15 16 17 18 19 20 21 22 23 24 25 26 27 28 29 30 31 32 33 34 35 36 37 38 39 40 41 42 43 44 45 46 47 48 49 50
000
ASUS43 KLMK 300002
RWRKY
KENTUCKY REGIONAL WEATHER ROUNDUP
NATIONAL WEATHER SERVICE LOUISVILLE KY
800 PM EDT TUE JUL 29 2014

NOTE "FAIR" INDICATES FEW OR NO CLOUDS BELOW 12,000 FEET
WITH NO SIGNIFICANT WEATHER AND/OR OBSTRUCTIONS TO VISIBILITY.

KYZ001>023-026-027-061>063-070>075-300100-
WESTERN AND SOUTH CENTRAL KENTUCKY

CITY           SKY/WX    TMP DP  RH WIND       PRES   REMARKS
PADUCAH        SUNNY     78  54  43 NW5       30.07F
HENDERSON      SUNNY     75  55  50 W5        30.06F
OWENSBORO      SUNNY     75  56  51 W6        30.07S
HOPKINSVILLE   SUNNY     75  52  43 N8        30.07F
BOWLING GREEN  MOCLDY    76  52  43 NW7       30.07F
GLASGOW        CLEAR     72  56  55 CALM      30.07F
$$

KYZ024-025-028>034-038-045-046-053-300100-
NORTH CENTRAL KENTUCKY

CITY           SKY/WX    TMP DP  RH WIND       PRES   REMARKS
LOUISVILLE/SDF PTCLDY    75  55  49 W8        30.05S
LOUISVILLE/LOU CLEAR     76  54  46 NW5       30.05F
FORT KNOX      PTCLDY    69  60  70 NW5       30.06S
$$

KYZ035>037-039>044-047>052-055>060-089>105-300100-
NORTHEAST KENTUCKY

CITY           SKY/WX    TMP DP  RH WIND       PRES   REMARKS
LEXINGTON      CLEAR     71  53  52 CALM      30.07S
COVINGTON      PTCLDY    70  54  56 W5        30.05S
FRANKFORT      CLEAR     71  54  54 CALM      30.06S
$$

KYZ054-064>069-076>088-106>120-300100-
SOUTHEAST KENTUCKY

CITY           SKY/WX    TMP DP  RH WIND       PRES   REMARKS
JACKSON        CLEAR     66  53  63 NW3       30.08S
LONDON         CLEAR     69  52  54 NW5       30.09R
SOMERSET       CLEAR     68  50  52 N6        30.09S
MIDDLESBORO    MOCLDY    68  54  61 N5        30.08S
MONTICELLO     CLEAR     70  57  63 N3        30.10R
$$




USA.gov is the U.S. government's official web portal to all federal, state and local government web resources and services.